[[{"header":{"parameterUnit":"m.s-1","parameterCategory":1,"la1":30.2991,"la2":30.254,"lo1":-89.0895,"lo2":-89.0444,"dy":0.0017,"dx":0.0017,"nx":28,"ny":28,"refTime":"2023-11-11T09:00:00:Z","depth":0,"parameterNumber":2,"parameterNumberName":"U-component_of_WINDS"},"data":[0,0,0,0,0,0,0,0,0,0,0,0,0,0,0,0,0,0,0,0,0,0,0,0,0,0,0,0,0,0,0,0,0,0,0,0,0,0,0,0,0,0,0,0,0,0,0,0,0,0,0,0,0,0,0,0,0,0,-3.7714,-3.7715,0,-3.7771,-3.7772,-3.7772,-3.768,-3.7677,-3.7674,-3.7671,-3.773,-3.7734,-3.7738,0,0,0,0,0,0,0,0,0,0,0,0,0,-3.7527,-3.7531,-3.7714,-3.7715,-3.7716,-3.7771,-3.7772,-3.7772,-3.7681,-3.7677,-3.7673,-3.7669,-3.7728,-3.7733,-3.7739,0,0,0,0,0,0,0,0,0,0,0,0,0,-3.7599,-3.7533,-3.7714,-3.7677,-3.7674,-3.7771,-3.7772,-3.7773,-3.7681,-3.7677,-3.7672,-3.7668,-3.7726,-3.7733,-3.774,-3.7876,0,0,-3.776,-3.7763,0,0,0,0,0,0,0,0,-3.7595,-3.7606,-3.7682,-3.7679,-3.7676,-3.7714,-3.7727,-3.7807,-3.7683,-3.7679,-3.7671,-3.7665,-3.7728,-3.7734,-3.7755,-3.7879,-3.7881,-3.7761,-3.7765,-3.7768,-3.777,0,0,0,0,0,0,0,-3.759,-3.7603,-3.7737,-3.7683,-3.768,-3.7657,-3.7662,-3.7742,-3.7729,-3.7679,-3.7672,-3.768,-3.7726,-3.7749,-3.7756,-3.7882,-3.7761,-3.7767,-3.7771,-3.7773,-3.812,-3.8125,0,0,0,0,0,0,-3.759,-3.7599,-3.7735,-3.7738,-3.7623,-3.7664,-3.767,-3.7707,-3.7728,-3.7727,-3.7684,-3.7675,-3.774,-3.7748,-3.7758,-3.7919,-3.7768,-3.7774,-3.7778,-3.8115,-3.8121,-3.8126,0,0,0,0,0,0,-3.7586,-3.7603,-3.7733,-3.7667,-3.7682,-3.7672,-3.7715,-3.771,-3.7733,-3.7732,-3.7729,-3.771,-3.7737,-3.7748,-3.7847,-3.792,-3.7777,-3.7783,-3.8109,-3.8117,-3.8124,-3.8243,0,0,0,0,0,0,-3.7581,-3.7602,-3.7654,-3.7669,-3.7686,-3.7821,-3.7719,-3.7715,-3.7745,-3.7735,-3.7756,-3.7755,-3.7734,-3.7838,-3.7854,-3.7927,-3.7788,-3.8102,-3.8112,-3.8121,-3.8232,-3.8254,-3.8272,0,0,0,0,0,-3.7575,-3.7685,-3.7657,-3.7674,-3.775,-3.7826,-3.7835,-3.7808,-3.7751,-3.7803,-3.7802,-3.7754,-3.7909,-3.7848,-3.7866,-3.7942,-3.8097,-3.8109,-3.812,-3.8224,-3.825,-3.8271,0,0,0,0,0,0,-3.7679,-3.7686,-3.7655,-3.7774,-3.78,-3.781,-3.7875,-3.7837,-3.788,-3.7868,-3.7833,-3.7839,-3.7945,-3.7953,-3.7885,-3.8075,-3.7994,-3.8009,-3.8066,-3.8091,-3.811,-3.8106,-3.7794,0,0,0,0,0,-3.7716,-3.7776,-3.7779,-3.7884,-3.7899,-3.7885,-3.7917,-3.7893,-3.7919,-3.793,-3.7936,-3.7963,-3.8017,-3.8054,-3.8104,-3.8233,-3.8236,-3.8293,-3.8313,-3.8329,-3.8344,-3.8412,-3.8438,-3.8165,-3.8164,-3.8164,0,0,-3.7793,-3.7804,-3.7845,-3.7905,-3.7923,-3.7986,-3.7895,-3.7966,-3.8013,-3.7941,-3.8034,-3.804,-3.8068,-3.8182,-3.8233,-3.8192,-3.842,-3.8344,-3.8357,-3.8363,-3.8427,-3.8453,-3.8476,-3.8172,-3.8171,-3.817,0,0,-3.7965,-3.798,-3.8068,-3.8088,-3.8115,-3.8105,-3.8126,-3.8142,-3.8143,-3.8237,-3.8184,-3.8239,-3.8334,-3.8356,-3.8379,-3.8559,-3.8517,-3.8577,-3.868,-3.8748,-3.8769,-3.8788,-3.8853,-3.8877,-3.8591,-3.8591,-3.8591,0,-3.8057,-3.8151,-3.8119,-3.8194,-3.8222,-3.8159,-3.8249,-3.8269,-3.8312,-3.8333,-3.8286,-3.8404,-3.8418,-3.8537,-3.8581,-3.8601,-3.8625,-3.8575,-3.8769,-3.8787,-3.8805,-3.8866,-3.889,-3.8598,-3.8597,-3.8597,-3.8596,0,-3.8263,-3.8329,-3.8397,-3.844,-3.8475,-3.8558,-3.8538,-3.8578,-3.8552,-3.8547,-3.8643,-3.8657,-3.8709,-3.8735,-3.871,-3.8851,-3.8825,-3.8774,-3.8692,-3.8838,-3.8895,-3.8919,-3.8608,-3.8606,-3.8604,-3.8602,0,0,-3.8504,-3.8527,-3.8553,-3.8571,-3.8597,-3.8647,-3.8726,-3.8776,-3.8812,-3.8843,-3.8909,-3.899,-3.8943,-3.897,-3.8947,-3.9006,-3.9148,-3.8948,-3.8948,-3.8985,-3.9304,-3.9343,-3.937,-3.912,-3.9124,-3.9127,-3.9302,0,-3.8676,-3.8812,-3.8786,-3.8919,-3.8979,-3.892,-3.8989,-3.9012,-3.9009,-3.906,-3.9056,-3.9115,-3.9049,-3.9064,-3.912,-3.9119,-3.9212,-3.9106,-3.9181,-3.9184,-3.9177,-3.94,-3.9441,-3.9605,-3.9324,-3.9328,-3.9331,0,-3.8895,-3.8935,-3.9074,-3.909,-3.9114,-3.9176,-3.922,-3.927,-3.9294,-3.9288,-3.9318,-3.9284,-3.9362,-3.9278,-3.9386,-3.9315,-3.9343,-3.9348,-3.9353,-3.936,-3.9267,-3.9414,-3.9657,-3.9682,-3.9365,-3.9363,-3.936,0,-3.9058,-3.9146,-3.924,-3.9258,-3.9278,-3.9324,-3.9334,-3.9354,-3.9386,-3.9424,-3.9445,-3.9492,-3.9518,-3.9556,-3.9535,-3.9476,-3.9647,-3.9561,-3.9644,-3.9645,-3.9684,-3.9682,-3.9936,-3.9702,-3.9701,-3.9701,-3.97,0,-3.9254,-3.9342,-3.9314,-3.9372,-3.9469,-3.9437,-3.9533,-3.9537,-3.9555,-3.9613,-3.9564,-3.962,-3.9589,-3.9642,-3.9626,-3.9718,-3.973,-3.9727,-3.9722,-3.9732,-3.9733,-3.9752,-3.974,-3.9707,-3.9706,-3.9704,-3.9703,0,-3.9452,-3.9437,-3.9537,-3.9547,-3.9552,-3.9623,-3.9632,-3.9686,-3.9679,-3.9754,-3.9769,-3.9759,-3.9819,-3.9801,-3.9866,-3.9855,-3.9972,-3.9952,-3.9964,-3.996,-4.0044,-4.0037,-4.032,-4.0356,-4.0097,-4.01,-4.0102,0,-3.9579,-3.9645,-3.9663,-3.9698,-3.9712,-3.9769,-3.9802,-3.9773,-3.9808,-3.9841,-3.9892,-3.9948,-3.9991,-4.0089,-4.0088,-4.0137,-4.0118,-4.0214,-4.0126,-4.0134,-4.0121,-4.0117,-4.0124,-4.0232,-4.0235,-4.0238,-4.024,0,-3.9805,-3.9794,-3.9842,-3.9888,-3.9928,-3.9963,-3.9993,-4.0025,-3.9998,-4.0041,-4.0101,-4.0135,-4.0201,-4.0257,-4.0302,-4.0312,-4.0273,-4.0267,-4.0289,-4.0301,-4.0305,-4.0305,-4.0013,-4.0261,-4.0259,-4.0257,-4.0256,-4.0255,-3.9972,-4.0028,-4.0049,-4.0104,-4.0124,-4.0153,-4.0205,-4.0204,-4.0254,-4.0306,-4.0285,-4.0355,-4.0378,-4.0434,-4.0451,-4.0505,-4.0468,-4.05,-4.0508,-4.0517,-4.0528,-4.0296,-4.0513,-4.0512,-4.0512,-4.0511,-4.0511,0,-4.0196,-4.0206,-4.0257,-4.0301,-4.0345,-4.0302,-4.0334,-4.0373,-4.0435,-4.0459,-4.0503,-4.0572,-4.0626,-4.0629,-4.0679,-4.0722,-4.0705,-4.0737,-4.0734,-4.0737,-4.0557,-4.0534,-4.075,-4.075,-4.075,-4.0749,-4.0749,-4.0749,-4.0317,-4.041,-4.0402,-4.0504,-4.0513,-4.0581,-4.0603,-4.063,-4.0649,-4.0729,-4.0773,-4.0774,-4.079,-4.0841,-4.0888,-4.0888,-4.0909,-4.0948,-4.094,-4.0773,-4.0749,-4.0727,-4.0704,-4.0952,-4.0953,-4.1115,-4.1116,-4.1118]},{"header":{"parameterUnit":"m.s-1","parameterCategory":1,"la1":30.2991,"la2":30.254,"lo1":-89.0895,"lo2":-89.0444,"dy":0.0017,"dx":0.0017,"nx":28,"ny":28,"refTime":"2023-11-11T09:00:00:Z","depth":0,"parameterNumber":3,"parameterNumberName":"V-component_of_WINDS"},"data":[0,0,0,0,0,0,0,0,0,0,0,0,0,0,0,0,0,0,0,0,0,0,0,0,0,0,0,0,0,0,0,0,0,0,0,0,0,0,0,0,0,0,0,0,0,0,0,0,0,0,0,0,0,0,0,0,0,0,-4.2507,-4.2507,0,-4.2527,-4.2527,-4.2527,-4.248,-4.2478,-4.2477,-4.2476,-4.2494,-4.2496,-4.2498,0,0,0,0,0,0,0,0,0,0,0,0,0,-4.2426,-4.2428,-4.2507,-4.2507,-4.2508,-4.2527,-4.2527,-4.2527,-4.248,-4.2478,-4.2477,-4.2475,-4.2494,-4.2496,-4.2498,0,0,0,0,0,0,0,0,0,0,0,0,0,-4.2455,-4.2428,-4.2507,-4.2487,-4.2485,-4.2527,-4.2527,-4.2527,-4.2481,-4.2478,-4.2476,-4.2474,-4.2493,-4.2496,-4.2498,-4.2561,0,0,-4.2507,-4.2508,0,0,0,0,0,0,0,0,-4.2454,-4.2458,-4.2489,-4.2488,-4.2486,-4.2499,-4.2505,-4.2539,-4.2481,-4.2482,-4.2476,-4.2473,-4.2497,-4.25,-4.2508,-4.2562,-4.2562,-4.2507,-4.2509,-4.251,-4.2511,0,0,0,0,0,0,0,-4.2452,-4.2457,-4.2515,-4.249,-4.2488,-4.2475,-4.2477,-4.2511,-4.2502,-4.2482,-4.2479,-4.2482,-4.2496,-4.2506,-4.2508,-4.2563,-4.2507,-4.251,-4.2512,-4.2513,-4.2667,-4.2669,0,0,0,0,0,0,-4.2453,-4.2456,-4.2514,-4.2516,-4.2464,-4.2479,-4.2481,-4.2497,-4.2502,-4.25,-4.2483,-4.2479,-4.2502,-4.2505,-4.2509,-4.2581,-4.251,-4.2513,-4.2515,-4.2664,-4.2667,-4.267,0,0,0,0,0,0,-4.2451,-4.2458,-4.2514,-4.2485,-4.2491,-4.2482,-4.2501,-4.2499,-4.2508,-4.2503,-4.2501,-4.2495,-4.25,-4.2505,-4.2548,-4.2581,-4.2514,-4.2517,-4.2661,-4.2665,-4.2668,-4.2727,0,0,0,0,0,0,-4.2449,-4.2458,-4.2482,-4.2486,-4.2493,-4.2553,-4.2503,-4.2501,-4.2513,-4.2508,-4.2513,-4.2512,-4.2499,-4.2544,-4.2551,-4.2584,-4.2519,-4.2658,-4.2663,-4.2667,-4.2722,-4.2732,-4.2741,0,0,0,0,0,-4.2446,-4.2498,-4.2484,-4.2491,-4.2523,-4.2555,-4.2559,-4.2544,-4.2516,-4.254,-4.2536,-4.2512,-4.2577,-4.2549,-4.2556,-4.259,-4.2656,-4.2662,-4.2667,-4.2718,-4.273,-4.274,0,0,0,0,0,0,-4.2499,-4.2498,-4.2482,-4.2537,-4.2547,-4.2547,-4.2577,-4.2557,-4.2575,-4.2569,-4.2548,-4.255,-4.2596,-4.2598,-4.2567,-4.265,-4.2611,-4.2619,-4.2648,-4.2659,-4.2669,-4.2667,-4.2521,0,0,0,0,0,-4.2517,-4.2544,-4.2542,-4.259,-4.2596,-4.2586,-4.2599,-4.2586,-4.2595,-4.2599,-4.2598,-4.2607,-4.2629,-4.2645,-4.2665,-4.2722,-4.2722,-4.2749,-4.2758,-4.2766,-4.2772,-4.2801,-4.2813,-4.2687,-4.2687,-4.2687,0,0,-4.2554,-4.2557,-4.2576,-4.2601,-4.2606,-4.2634,-4.2589,-4.2621,-4.264,-4.2603,-4.2644,-4.2644,-4.2652,-4.2702,-4.2724,-4.2705,-4.2807,-4.2773,-4.2779,-4.2781,-4.2808,-4.282,-4.283,-4.2691,-4.269,-4.269,0,0,-4.2636,-4.2642,-4.2682,-4.2689,-4.2698,-4.2691,-4.2701,-4.2704,-4.2703,-4.2743,-4.2715,-4.2738,-4.2777,-4.2784,-4.2793,-4.2876,-4.2853,-4.2883,-4.2932,-4.296,-4.297,-4.2979,-4.3007,-4.3018,-4.2889,-4.2889,-4.289,0,-4.2681,-4.2722,-4.2705,-4.2738,-4.2749,-4.2717,-4.2757,-4.2764,-4.2779,-4.2787,-4.2765,-4.2813,-4.2816,-4.2867,-4.2887,-4.2896,-4.2905,-4.2882,-4.297,-4.2979,-4.2986,-4.3013,-4.3024,-4.2893,-4.2893,-4.2892,-4.2892,0,-4.2777,-4.2805,-4.2837,-4.2852,-4.2867,-4.2903,-4.2891,-4.2907,-4.2893,-4.2888,-4.2928,-4.2932,-4.2951,-4.2962,-4.2949,-4.3011,-4.2998,-4.2974,-4.2934,-4.3002,-4.3027,-4.3037,-4.2898,-4.2897,-4.2896,-4.2895,0,0,-4.2893,-4.2898,-4.2909,-4.2915,-4.2923,-4.2944,-4.2978,-4.2998,-4.3012,-4.3024,-4.3051,-4.3084,-4.3061,-4.3071,-4.3058,-4.3083,-4.3147,-4.3055,-4.3055,-4.3071,-4.3214,-4.3232,-4.3244,-4.3132,-4.3134,-4.3136,-4.3213,0,-4.2973,-4.3032,-4.3017,-4.3075,-4.3101,-4.307,-4.3099,-4.3107,-4.3102,-4.3123,-4.3118,-4.3141,-4.311,-4.3115,-4.3139,-4.3134,-4.3175,-4.3129,-4.3156,-4.3158,-4.3155,-4.3257,-4.3277,-4.3349,-4.3223,-4.3224,-4.3225,0,-4.3075,-4.309,-4.3151,-4.3152,-4.3162,-4.319,-4.3205,-4.3225,-4.3232,-4.3227,-4.3238,-4.3219,-4.3252,-4.3213,-4.3257,-4.3225,-4.3236,-4.3235,-4.3237,-4.3239,-4.3195,-4.3261,-4.3372,-4.3383,-4.3241,-4.324,-4.3239,0,-4.3152,-4.3187,-4.3228,-4.3234,-4.3238,-4.3257,-4.3259,-4.3264,-4.3276,-4.329,-4.3298,-4.3315,-4.3324,-4.3338,-4.3324,-4.3297,-4.3369,-4.3329,-4.3365,-4.3366,-4.3382,-4.3381,-4.3496,-4.339,-4.339,-4.339,-4.3389,0,-4.3242,-4.328,-4.3262,-4.3287,-4.3329,-4.331,-4.3352,-4.335,-4.3355,-4.3378,-4.3353,-4.3375,-4.3356,-4.3376,-4.3365,-4.3403,-4.3407,-4.3403,-4.34,-4.3405,-4.3406,-4.3411,-4.3406,-4.3392,-4.3392,-4.3391,-4.3391,0,-4.3335,-4.3325,-4.3367,-4.3367,-4.3367,-4.3398,-4.3397,-4.342,-4.3413,-4.3443,-4.3449,-4.3439,-4.3462,-4.3449,-4.3472,-4.3465,-4.3513,-4.3503,-4.3511,-4.3508,-4.3544,-4.3541,-4.3666,-4.3681,-4.3567,-4.3568,-4.3569,0,-4.3394,-4.3422,-4.3425,-4.3438,-4.3442,-4.3465,-4.3477,-4.346,-4.3474,-4.3483,-4.3504,-4.3525,-4.354,-4.3577,-4.3572,-4.3589,-4.3579,-4.3621,-4.3581,-4.3585,-4.3578,-4.3576,-4.3578,-4.3629,-4.3631,-4.3632,-4.3633,0,-4.3498,-4.3491,-4.3509,-4.3526,-4.3541,-4.3553,-4.3563,-4.3576,-4.3559,-4.3575,-4.3598,-4.361,-4.3633,-4.3653,-4.3668,-4.3669,-4.3648,-4.3646,-4.3655,-4.366,-4.3663,-4.3661,-4.3532,-4.3643,-4.3642,-4.3641,-4.364,-4.364,-4.3574,-4.3597,-4.3603,-4.3624,-4.3629,-4.3639,-4.366,-4.3656,-4.3674,-4.3692,-4.3681,-4.3707,-4.3712,-4.3729,-4.3734,-4.3754,-4.3736,-4.375,-4.3753,-4.3756,-4.3761,-4.366,-4.3756,-4.3756,-4.3756,-4.3755,-4.3755,0,-4.3676,-4.3677,-4.3697,-4.3711,-4.3728,-4.3706,-4.3716,-4.3731,-4.3755,-4.3761,-4.3777,-4.3802,-4.3821,-4.3817,-4.3834,-4.3851,-4.3841,-4.3856,-4.3854,-4.3854,-4.3776,-4.3766,-4.3863,-4.3863,-4.3863,-4.3863,-4.3863,-4.3863,-4.3731,-4.3768,-4.3762,-4.3802,-4.3803,-4.3829,-4.3836,-4.3844,-4.3849,-4.3879,-4.3894,-4.3891,-4.3893,-4.391,-4.3926,-4.3924,-4.3931,-4.3949,-4.3944,-4.3871,-4.386,-4.385,-4.384,-4.3951,-4.3951,-4.402,-4.4021,-4.4022]}]]